Location: Poughquag
(41.6090°N, 73.6820°W)
Time: 08:27:02
(UTC-05:00)

DIWATA 2B (PO-101) - Pass Details

Date: 16 November 2025
Orbit: 563 x 574 km, 98.1° (Epoch: 07 December)

Event Time Altitude Azimuth Distance (km) Brightness Sun altitude
Exits shadow 18:32:25 10° 1° (N) 1,871 ? -22.2°
Reaches altitude 10° 18:32:26 10° 1° (N) 1,865 ? -22.2°
Maximum altitude 18:36:17 46° 288° (WNW) 766 ? -22.9°
Drops below altitude 10° 18:40:07 10° 215° (SW) 1,852 ? -23.6°
Sets 18:42:18 0° 209° (SSW) 2,745 ? -24.0°
